TimeCDT,TemperatureF,Dew PointF,Humidity,Sea Level PressureIn,VisibilityMPH,Wind Direction,Wind SpeedMPH,Gust SpeedMPH,PrecipitationIn,Events,Conditions,WindDirDegrees,DateUTC
12:15 AM,68.9,65.5,89,29.98,10.0,SSE,5.8,-,N/A,,Clear,150,2013-09-19 05:15:00
12:35 AM,69.3,65.8,89,29.98,7.0,SSE,5.8,-,N/A,,Scattered Clouds,160,2013-09-19 05:35:00
12:55 AM,69.6,66.2,89,29.98,7.0,SSE,5.8,-,N/A,,Scattered Clouds,160,2013-09-19 05:55:00
1:15 AM,69.8,66.4,89,29.99,5.0,SSE,4.6,-,N/A,,Scattered Clouds,160,2013-09-19 06:15:00
1:35 AM,69.8,66.6,89,29.98,5.0,SSE,6.9,-,N/A,,Clear,150,2013-09-19 06:35:00
1:55 AM,69.4,66.6,91,29.98,5.0,South,5.8,-,N/A,,Scattered Clouds,170,2013-09-19 06:55:00
2:15 AM,70.2,67.1,90,29.98,4.0,South,6.9,-,N/A,,Scattered Clouds,170,2013-09-19 07:15:00
2:35 AM,70.2,67.1,90,29.97,4.0,SSE,5.8,-,N/A,,Mostly Cloudy,160,2013-09-19 07:35:00
2:55 AM,70.2,67.3,91,29.97,4.0,South,6.9,-,N/A,,Scattered Clouds,180,2013-09-19 07:55:00
3:15 AM,70.3,67.3,90,29.97,4.0,South,6.9,-,N/A,,Scattered Clouds,170,2013-09-19 08:15:00
3:35 AM,70.0,67.3,91,29.96,4.0,South,5.8,-,N/A,,Scattered Clouds,170,2013-09-19 08:35:00
3:55 AM,69.8,67.3,92,29.95,3.0,South,5.8,-,N/A,,Clear,170,2013-09-19 08:55:00
4:15 AM,69.8,67.3,92,29.95,3.0,South,8.1,-,N/A,,Clear,170,2013-09-19 09:15:00
4:35 AM,69.8,67.5,92,29.95,3.0,SSE,6.9,-,N/A,,Mostly Cloudy,150,2013-09-19 09:35:00
4:55 AM,70.0,67.6,92,29.95,3.0,South,6.9,-,N/A,,Mist,170,2013-09-19 09:55:00
5:15 AM,69.8,67.3,92,29.95,3.0,SSE,6.9,-,N/A,,Scattered Clouds,160,2013-09-19 10:15:00
5:35 AM,70.0,67.6,92,29.94,3.0,SSE,5.8,-,N/A,,Mostly Cloudy,160,2013-09-19 10:35:00
5:55 AM,69.8,67.5,92,29.95,3.0,SSE,5.8,-,N/A,,Mostly Cloudy,160,2013-09-19 10:55:00
6:15 AM,70.0,67.5,92,29.95,4.0,SSE,5.8,-,N/A,Thunderstorm,Scattered Clouds,160,2013-09-19 11:15:00
6:35 AM,70.0,67.6,92,29.96,3.0,South,4.6,-,N/A,Thunderstorm,Mist,170,2013-09-19 11:35:00
6:55 AM,70.3,68.0,92,29.95,4.0,South,5.8,-,N/A,,Scattered Clouds,170,2013-09-19 11:55:00
7:15 AM,70.9,68.0,91,29.95,4.0,South,6.9,-,N/A,,Scattered Clouds,170,2013-09-19 12:15:00
7:35 AM,71.6,68.2,89,29.95,5.0,South,5.8,-,N/A,,Scattered Clouds,180,2013-09-19 12:35:00
7:55 AM,72.0,68.2,88,29.96,5.0,South,5.8,-,N/A,Thunderstorm,Scattered Clouds,180,2013-09-19 12:55:00
8:15 AM,72.5,68.0,86,29.95,5.0,South,8.1,-,N/A,,Haze,190,2013-09-19 13:15:00
8:35 AM,73.2,68.4,85,29.95,5.0,South,6.9,-,N/A,,Haze,180,2013-09-19 13:35:00
8:55 AM,74.3,68.7,83,29.95,5.0,SSW,6.9,-,N/A,,Haze,210,2013-09-19 13:55:00
9:15 AM,73.6,68.4,84,29.95,7.0,SSW,9.2,-,N/A,,Scattered Clouds,200,2013-09-19 14:15:00
9:35 AM,73.6,68.4,84,29.95,7.0,SSW,8.1,-,N/A,,Scattered Clouds,200,2013-09-19 14:35:00
9:55 AM,75.6,69.4,81,29.94,7.0,South,9.2,-,N/A,,Scattered Clouds,190,2013-09-19 14:55:00
10:15 AM,76.1,69.3,79,29.94,7.0,South,6.9,-,N/A,,Clear,190,2013-09-19 15:15:00
10:35 AM,79.2,68.9,71,29.95,7.0,SSW,10.4,-,N/A,Thunderstorm,Scattered Clouds,210,2013-09-19 15:35:00
10:55 AM,79.7,69.1,70,29.95,7.0,SSW,11.5,-,N/A,Thunderstorm,Scattered Clouds,200,2013-09-19 15:55:00
11:15 AM,80.6,69.1,68,29.94,10.0,SSW,8.1,-,N/A,,Scattered Clouds,210,2013-09-19 16:15:00
11:35 AM,82.2,69.6,66,29.94,10.0,SSW,8.1,-,N/A,,Clear,210,2013-09-19 16:35:00
11:55 AM,83.3,67.8,59,29.94,10.0,SSW,5.8,-,N/A,,Clear,210,2013-09-19 16:55:00
12:15 PM,83.7,67.3,58,29.94,10.0,SSW,8.1,-,N/A,,Scattered Clouds,200,2013-09-19 17:15:00
12:35 PM,83.7,67.3,58,29.92,10.0,SSW,3.5,-,N/A,,Scattered Clouds,210,2013-09-19 17:35:00
12:55 PM,85.8,67.3,54,29.92,10.0,SSW,8.1,-,N/A,,Scattered Clouds,210,2013-09-19 17:55:00
1:15 PM,86.5,67.3,52,29.91,10.0,SW,5.8,-,N/A,,Clear,220,2013-09-19 18:15:00
1:35 PM,88.2,67.3,50,29.89,10.0,South,5.8,-,N/A,,Clear,170,2013-09-19 18:35:00
1:55 PM,88.9,66.2,47,29.89,10.0,SW,6.9,-,N/A,,Clear,220,2013-09-19 18:55:00
2:15 PM,89.8,66.4,46,29.88,10.0,WSW,9.2,-,N/A,,Clear,240,2013-09-19 19:15:00
2:35 PM,89.6,66.4,46,29.88,10.0,SSW,9.2,-,N/A,,Clear,210,2013-09-19 19:35:00
2:55 PM,89.2,65.5,45,29.87,10.0,SSW,11.5,17.3,N/A,,Clear,200,2013-09-19 19:55:00
3:15 PM,90.3,64.6,42,29.86,10.0,SW,9.2,18.4,N/A,,Clear,230,2013-09-19 20:15:00
3:35 PM,90.5,64.4,42,29.85,10.0,SW,10.4,18.4,N/A,,Clear,220,2013-09-19 20:35:00
3:55 PM,90.7,63.7,41,29.83,10.0,SSW,12.7,17.3,N/A,,Clear,210,2013-09-19 20:55:00
4:15 PM,90.5,64.0,41,29.83,10.0,SSW,9.2,16.1,N/A,,Clear,200,2013-09-19 21:15:00
4:35 PM,90.1,63.7,41,29.83,10.0,SSW,8.1,16.1,N/A,,Clear,210,2013-09-19 21:35:00
4:55 PM,89.6,64.6,43,29.81,10.0,SSW,9.2,-,N/A,,Clear,200,2013-09-19 21:55:00
5:15 PM,87.8,63.1,44,29.81,10.0,South,13.8,21.9,N/A,,Clear,190,2013-09-19 22:15:00
5:35 PM,86.4,62.4,45,29.81,10.0,South,6.9,-,N/A,,Clear,190,2013-09-19 22:35:00
5:55 PM,86.0,63.9,47,29.81,10.0,South,5.8,-,N/A,,Clear,190,2013-09-19 22:55:00
6:15 PM,85.1,64.6,50,29.82,10.0,South,5.8,-,N/A,,Clear,190,2013-09-19 23:15:00
6:35 PM,84.0,65.1,53,29.83,10.0,South,5.8,-,N/A,,Clear,170,2013-09-19 23:35:00
6:55 PM,82.0,66.4,59,29.84,10.0,SE,5.8,-,N/A,,Clear,130,2013-09-19 23:55:00
7:15 PM,79.7,67.3,66,29.84,10.0,SE,8.1,-,N/A,,Clear,140,2013-09-20 00:15:00
7:35 PM,78.8,68.0,69,29.84,10.0,SSE,6.9,-,N/A,,Clear,150,2013-09-20 00:35:00
7:55 PM,77.9,68.0,71,29.84,10.0,South,6.9,-,N/A,,Clear,170,2013-09-20 00:55:00
8:15 PM,77.5,68.2,73,29.84,10.0,South,5.8,-,N/A,,Clear,170,2013-09-20 01:15:00
8:35 PM,77.2,68.4,74,29.84,10.0,South,4.6,-,N/A,,Clear,170,2013-09-20 01:35:00
8:55 PM,76.5,68.2,75,29.83,10.0,SSE,4.6,-,N/A,,Clear,150,2013-09-20 01:55:00
9:15 PM,76.5,68.2,75,29.83,10.0,South,4.6,-,N/A,,Clear,190,2013-09-20 02:15:00
9:35 PM,77.0,68.0,74,29.83,10.0,South,5.8,-,N/A,,Clear,190,2013-09-20 02:35:00
9:55 PM,77.7,67.5,71,29.83,10.0,SSW,6.9,-,N/A,,Scattered Clouds,200,2013-09-20 02:55:00
10:15 PM,79.2,66.7,66,29.83,10.0,SSW,9.2,-,N/A,,Clear,200,2013-09-20 03:15:00
10:35 PM,79.0,67.1,67,29.84,10.0,WSW,9.2,16.1,N/A,,Scattered Clouds,240,2013-09-20 03:35:00
10:55 PM,79.2,66.4,65,29.84,10.0,WSW,6.9,-,N/A,,Scattered Clouds,240,2013-09-20 03:55:00
11:15 PM,78.4,64.6,62,29.85,10.0,West,4.6,-,N/A,,Scattered Clouds,270,2013-09-20 04:15:00
11:35 PM,77.0,61.9,59,29.85,10.0,Calm,Calm,-,N/A,,Scattered Clouds,0,2013-09-20 04:35:00
11:55 PM,76.1,61.7,61,29.85,10.0,SW,3.5,-,N/A,,Scattered Clouds,220,2013-09-20 04:55:00